CXA9527 ZPPP-ZSNJ

Flight info

Callsign CXA9527
Flight time N/A
Altitude 39100
Route NODIB W137 LPS A581 WHA R343 HFE W51 LEGIV W164 OREVO
Aircraft A339/H-SDE2E3FGHIJ1RWXY/M

Departure

Time N/A
Airport Kunming Changshui International Airport (ZPPP)

Arrival

Time 2026-05-04 15:35
Airport Nanjing Lukou International Airport (ZSNJ)
Time Latitude Longitude Altitude Speed Heading
2026-05-04 14:34 29.18776 111.17301 38975 ft 519 kts 66°
2026-05-04 14:34 29.21462 111.24961 38962 ft 519 kts 66°
2026-05-04 14:35 29.24130 111.32593 38952 ft 519 kts 66°
2026-05-04 14:35 29.26802 111.40248 38951 ft 518 kts 66°
2026-05-04 14:36 29.29472 111.47919 38956 ft 519 kts 66°
2026-05-04 14:36 29.32129 111.55575 38941 ft 518 kts 66°
2026-05-04 14:37 29.34921 111.63109 38947 ft 517 kts 61°
2026-05-04 14:37 29.38334 111.70110 38945 ft 514 kts 55°
2026-05-04 14:38 29.42186 111.76851 38941 ft 514 kts 53°
2026-05-04 14:38 29.46118 111.83672 38940 ft 515 kts 54°
2026-05-04 14:39 29.50041 111.90524 38934 ft 515 kts 54°
2026-05-04 14:39 29.53963 111.97398 38933 ft 515 kts 54°
2026-05-04 14:40 29.59813 112.07690 38927 ft 515 kts 54°
2026-05-04 14:40 29.63715 112.14568 38940 ft 516 kts 54°
2026-05-04 14:41 29.67617 112.21456 38940 ft 516 kts 53°
2026-05-04 14:42 29.75431 112.35297 38938 ft 517 kts 53°
2026-05-04 14:42 29.79333 112.42247 38938 ft 517 kts 54°
2026-05-04 14:43 29.83201 112.49166 38937 ft 517 kts 53°
2026-05-04 14:43 29.87093 112.56133 38936 ft 517 kts 54°
2026-05-04 14:44 29.90977 112.63101 38939 ft 518 kts 53°
2026-05-04 14:44 29.94827 112.70020 38941 ft 519 kts 54°
2026-05-04 14:45 29.98721 112.77027 38938 ft 520 kts 54°
2026-05-04 14:45 30.02605 112.84032 38938 ft 520 kts 54°
2026-05-04 14:46 30.06506 112.91080 38944 ft 521 kts 54°
2026-05-04 14:46 30.10397 112.98119 38940 ft 521 kts 54°
2026-05-04 14:47 30.14227 113.05066 38951 ft 521 kts 53°
2026-05-04 14:47 30.18128 113.12152 38953 ft 522 kts 54°
2026-05-04 14:48 30.21998 113.19193 38947 ft 521 kts 53°
2026-05-04 14:48 30.25934 113.26210 38955 ft 521 kts 53°
2026-05-04 14:49 30.29888 113.33241 38958 ft 521 kts 53°
2026-05-04 14:49 30.33811 113.40237 38955 ft 522 kts 52°
2026-05-04 14:50 30.37739 113.47263 38958 ft 520 kts 53°
2026-05-04 14:50 30.41666 113.54304 38957 ft 521 kts 53°
2026-05-04 14:51 30.45588 113.61353 38957 ft 520 kts 53°
2026-05-04 14:51 30.49509 113.68405 38957 ft 521 kts 53°
2026-05-04 14:52 30.53336 113.75311 38959 ft 521 kts 53°
2026-05-04 14:52 30.57242 113.82376 38957 ft 520 kts 53°
2026-05-04 14:53 30.61144 113.89420 38964 ft 520 kts 53°
2026-05-04 14:53 30.65050 113.96500 38961 ft 519 kts 53°
2026-05-04 14:54 30.68942 114.03548 38952 ft 520 kts 53°
2026-05-04 14:54 30.72847 114.10642 38960 ft 520 kts 53°
2026-05-04 14:55 30.76659 114.17753 38956 ft 523 kts 56°
2026-05-04 14:55 30.79879 114.25371 38961 ft 529 kts 64°
2026-05-04 14:56 30.82509 114.33300 38959 ft 529 kts 66°
2026-05-04 14:56 30.85047 114.41347 38966 ft 531 kts 66°
2026-05-04 14:57 30.87627 114.49368 38968 ft 530 kts 65°
2026-05-04 14:57 30.90218 114.57332 38972 ft 530 kts 65°
2026-05-04 14:58 30.92830 114.65372 38974 ft 532 kts 66°
2026-05-04 14:58 30.95398 114.73305 38976 ft 533 kts 66°
2026-05-04 14:59 30.97981 114.81328 38978 ft 534 kts 66°
2026-05-04 15:00 31.01889 114.93498 38979 ft 535 kts 66°
2026-05-04 15:00 31.04483 115.01588 38985 ft 534 kts 65°
2026-05-04 15:01 31.08376 115.13779 39007 ft 536 kts 65°
2026-05-04 15:01 31.10964 115.21916 39024 ft 536 kts 65°
2026-05-04 15:02 31.13506 115.29951 39040 ft 536 kts 64°
2026-05-04 15:02 31.16017 115.37696 39054 ft 537 kts 64°
2026-05-04 15:03 31.18646 115.45789 39057 ft 537 kts 64°
2026-05-04 15:03 31.21275 115.53923 39078 ft 537 kts 64°
2026-05-04 15:04 31.23893 115.62061 39101 ft 538 kts 64°
2026-05-04 15:04 31.26484 115.70149 39115 ft 537 kts 65°
2026-05-04 15:05 31.29057 115.78185 39135 ft 538 kts 64°
2026-05-04 15:05 31.31658 115.86334 39115 ft 537 kts 64°
2026-05-04 15:06 31.34295 115.94488 39103 ft 536 kts 63°
2026-05-04 15:07 31.38290 116.06701 38217 ft 538 kts 63°
2026-05-04 15:07 31.39620 116.10785 37247 ft 539 kts 63°
2026-05-04 15:07 31.40927 116.14820 36496 ft 536 kts 63°
2026-05-04 15:07 31.42227 116.18865 35666 ft 527 kts 63°
2026-05-04 15:08 31.43510 116.22859 34351 ft 515 kts 63°
2026-05-04 15:08 31.44744 116.26688 33432 ft 498 kts 63°
2026-05-04 15:08 31.45950 116.30411 32753 ft 488 kts 63°
2026-05-04 15:08 31.47156 116.34115 32023 ft 489 kts 63°
2026-05-04 15:09 31.48357 116.37814 31329 ft 489 kts 64°
2026-05-04 15:09 31.49551 116.41507 30811 ft 484 kts 64°
2026-05-04 15:09 31.50728 116.45164 30257 ft 480 kts 64°
2026-05-04 15:10 31.53037 116.52362 28610 ft 462 kts 65°
2026-05-04 15:10 31.54139 116.55822 27844 ft 449 kts 65°
2026-05-04 15:10 31.56259 116.62458 26295 ft 427 kts 65°
2026-05-04 15:11 31.57293 116.65696 25517 ft 419 kts 66°
2026-05-04 15:11 31.58274 116.68769 24763 ft 411 kts 66°
2026-05-04 15:11 31.59198 116.71661 24041 ft 404 kts 66°
2026-05-04 15:11 31.60094 116.74474 23330 ft 398 kts 66°
2026-05-04 15:12 31.60997 116.77309 22602 ft 393 kts 66°
2026-05-04 15:12 31.61939 116.80271 21839 ft 388 kts 67°
2026-05-04 15:12 31.62872 116.83213 21336 ft 385 kts 67°
2026-05-04 15:12 31.63808 116.86159 20877 ft 388 kts 67°
2026-05-04 15:13 31.64750 116.89131 20420 ft 388 kts 67°
2026-05-04 15:13 31.65688 116.92091 19969 ft 387 kts 67°
2026-05-04 15:13 31.66525 116.94740 19535 ft 386 kts 67°
2026-05-04 15:13 31.67443 116.97592 19721 ft 384 kts 69°
2026-05-04 15:14 31.68367 117.00529 19219 ft 382 kts 70°
2026-05-04 15:14 31.69280 117.03468 18756 ft 380 kts 70°
2026-05-04 15:14 31.70169 117.06354 18308 ft 376 kts 70°
2026-05-04 15:14 31.71049 117.09210 17860 ft 374 kts 70°
2026-05-04 15:15 31.71933 117.12076 17408 ft 371 kts 70°
2026-05-04 15:15 31.72809 117.14918 16956 ft 368 kts 70°
2026-05-04 15:15 31.73665 117.17693 16512 ft 365 kts 70°
2026-05-04 15:16 31.75384 117.23276 15610 ft 361 kts 70°
2026-05-04 15:16 31.76231 117.26029 15160 ft 358 kts 70°
2026-05-04 15:16 31.76854 117.31632 14239 ft 353 kts 106°
2026-05-04 15:17 31.75718 117.34158 13798 ft 350 kts 126°
2026-05-04 15:17 31.72656 117.38562 12905 ft 347 kts 129°
2026-05-04 15:17 31.71171 117.40770 12456 ft 345 kts 127°
2026-05-04 15:18 31.69712 117.43034 12002 ft 343 kts 126°
2026-05-04 15:18 31.68329 117.45244 11752 ft 335 kts 126°
2026-05-04 15:18 31.66989 117.47417 11739 ft 320 kts 125°
2026-05-04 15:19 31.64396 117.51653 11743 ft 319 kts 125°
2026-05-04 15:19 31.63104 117.53768 11743 ft 319 kts 125°
2026-05-04 15:19 31.61013 117.58304 11730 ft 319 kts 97°
2026-05-04 15:20 31.61083 117.60899 11747 ft 319 kts 82°
2026-05-04 15:20 31.61366 117.63478 11746 ft 319 kts 82°
2026-05-04 15:20 31.61645 117.66055 11744 ft 319 kts 83°
2026-05-04 15:20 31.61907 117.68542 11743 ft 319 kts 83°
2026-05-04 15:21 31.62153 117.70942 11743 ft 319 kts 83°
2026-05-04 15:21 31.62414 117.73536 11743 ft 319 kts 83°
2026-05-04 15:21 31.62924 117.78680 11743 ft 319 kts 83°
2026-05-04 15:22 31.63178 117.81270 11743 ft 319 kts 83°
2026-05-04 15:22 31.63431 117.83854 11743 ft 319 kts 83°
2026-05-04 15:22 31.63936 117.89041 11743 ft 319 kts 83°
2026-05-04 15:23 31.64187 117.91629 11743 ft 319 kts 83°
2026-05-04 15:23 31.64436 117.94199 11673 ft 314 kts 83°
2026-05-04 15:23 31.64678 117.96711 11438 ft 308 kts 83°
2026-05-04 15:23 31.64918 117.99197 11179 ft 304 kts 83°
2026-05-04 15:24 31.65383 118.04038 10689 ft 296 kts 83°
2026-05-04 15:24 31.65835 118.08768 10228 ft 287 kts 83°
2026-05-04 15:25 31.66053 118.11053 10011 ft 283 kts 83°
2026-05-04 15:25 31.66270 118.13332 9799 ft 279 kts 83°
2026-05-04 15:25 31.66484 118.15589 9593 ft 276 kts 83°
2026-05-04 15:26 31.66686 118.20016 9199 ft 268 kts 89°
2026-05-04 15:26 31.66694 118.22186 9013 ft 264 kts 90°
2026-05-04 15:26 31.66704 118.26407 8659 ft 257 kts 90°
2026-05-04 15:27 31.66709 118.28488 8490 ft 253 kts 89°
2026-05-04 15:27 31.66722 118.32564 8163 ft 246 kts 89°
2026-05-04 15:28 31.66733 118.36506 7855 ft 239 kts 89°
2026-05-04 15:28 31.66738 118.38445 7706 ft 235 kts 89°
2026-05-04 15:28 31.66578 118.42215 7407 ft 228 kts 105°
2026-05-04 15:29 31.66007 118.43966 7075 ft 234 kts 114°
2026-05-04 15:30 31.62985 118.51530 5086 ft 276 kts 114°
2026-05-04 15:30 31.60566 118.57901 3577 ft 294 kts 103°
2026-05-04 15:31 31.61340 118.62461 2949 ft 288 kts 58°
2026-05-04 15:31 31.62453 118.64368 2945 ft 276 kts 54°
2026-05-04 15:32 31.65300 118.69425 2904 ft 245 kts 58°
2026-05-04 15:32 31.67037 118.72716 2373 ft 234 kts 58°
2026-05-04 15:33 31.68702 118.75850 1776 ft 217 kts 58°
2026-05-04 15:34 31.70857 118.79895 1013 ft 174 kts 58°
2026-05-04 15:34 31.71485 118.81077 754 ft 167 kts 58°
2026-05-04 15:34 31.72665 118.83282 342 ft 152 kts 56°
2026-05-04 15:35 31.73737 118.85291 62 ft 128 kts 60°
2026-05-04 15:35 31.74052 118.85885 62 ft 44 kts 56°
2026-05-04 15:35 31.74214 118.86192 62 ft 43 kts 54°
2026-05-04 15:36 31.74366 118.86602 61 ft 24 kts 85°
2026-05-04 15:36 31.74372 118.86691 62 ft 0 kts 86°
2026-05-04 15:36 31.74372 118.86706 61 ft 3 kts 86°
2026-05-04 15:37 31.74373 118.86720 61 ft 0 kts 86°
2026-05-04 15:37 31.74373 118.86723 61 ft 1 kts 86°
2026-05-04 15:37 31.74372 118.86767 62 ft 9 kts 107°
2026-05-04 15:38 31.74344 118.86848 61 ft 11 kts 104°
2026-05-04 15:38 31.74311 118.86940 62 ft 12 kts 136°
2026-05-04 15:38 31.74254 118.86957 62 ft 2 kts 153°
2026-05-04 15:38 31.74230 118.86974 61 ft 5 kts 147°
2026-05-04 15:39 31.74216 118.86985 62 ft 0 kts 147°